This is the latest recevied weather packets stored in our database for station/object KC1BRV. If no packets are shown the sender has not sent any weather packets the latest 10 day(s).
| Time | Temp. | Humidity | Pressure | Rain* | Wind** | Luminosity | Snow |
|---|---|---|---|---|---|---|---|
| 1777489988 | 17.78° C | 50% | 1014.3 hPa | 0 mm | - | 248 W/m² | - |
| 1777489685 | 17.78° C | 50% | 1014.4 hPa | 0 mm | - | 285 W/m² | - |
| 1777489381 | 17.78° C | 48% | 1014.6 hPa | 0 mm | - | 328 W/m² | - |
| 1777489078 | 17.22° C | 50% | 1014.6 hPa | 0 mm | - | 350 W/m² | - |
| 1777488775 | 17.22° C | 50% | 1014.7 hPa | 0 mm | - | 314 W/m² | - |
| 1777488473 | 17.22° C | 50% | 1014.7 hPa | 0 mm | - | 221 W/m² | - |
| 1777488171 | 17.78° C | 47% | 1014.9 hPa | 0 mm | - | 352 W/m² | - |
| 1777487869 | 17.22° C | 49% | 1015 hPa | 0 mm | - | 413 W/m² | - |
| 1777487566 | 17.78° C | 47% | 1014.9 hPa | 0 mm | - | 450 W/m² | - |
| 1777487263 | 17.78° C | 47% | 1015.2 hPa | 0 mm | - | 524 W/m² | - |
| 1777486960 | 18.33° C | 45% | 1015.3 hPa | 0 mm | - | 602 W/m² | - |
| 1777486656 | 17.78° C | 50% | 1015 hPa | 0 mm | - | 654 W/m² | - |
| 1777486354 | 17.22° C | 50% | 1015.2 hPa | 0 mm | - | 677 W/m² | - |
| 1777486052 | 17.22° C | 49% | 1015.4 hPa | 0 mm | - | 665 W/m² | - |
| 1777485748 | 16.67° C | 50% | 1015.3 hPa | 0 mm | - | 625 W/m² | - |
| 1777485443 | 17.22° C | 50% | 1015.3 hPa | 0 mm | - | 622 W/m² | - |
| 1777485139 | 17.78° C | 50% | 1015.3 hPa | 0 mm | - | 609 W/m² | - |
| 1777484836 | 17.22° C | 50% | 1015.4 hPa | 0 mm | - | 636 W/m² | - |
| 1777484533 | 16.67° C | 49% | 1015.4 hPa | 0 mm | - | 620 W/m² | - |
| 1777484230 | 16.67° C | 50% | 1015.3 hPa | 0 mm | - | 715 W/m² | - |
| 1777483926 | 16.11° C | 53% | 1015.6 hPa | 0 mm | - | 577 W/m² | - |
| 1777483623 | 16.11° C | 53% | 1015.5 hPa | 0 mm | - | 594 W/m² | - |
| 1777483317 | 16.67° C | 52% | 1015.4 hPa | 0 mm | - | 519 W/m² | - |
| 1777483014 | 17.22° C | 52% | 1015.8 hPa | 0 mm | - | 551 W/m² | - |
| 1777482710 | 16.67° C | 52% | 1015.8 hPa | 0 mm | - | 612 W/m² | - |
* Rain latest hour (hover to see other rain measurements)
** Current wind speed in m/s (hover to see current wind gust speed)